Location: Arrington
(35.8681°N, 86.7092°W)
Time: 01:55:06
(UTC+00:00)

STARLINK 1050 - Pass Details

Date: 23 November 2019
Orbit: 476 x 477 km, 53.0° (Epoch: 15 December)

Event Time Altitude Azimuth Distance (km) Brightness Sun altitude
Exits shadow 09:43:21 12° 108° (ESE) 1,539 6.6 -33.6°
Drops below altitude 10° 09:44:00 10° 98° (E) 1,636 6.8 -33.5°
Enters shadow 10:48:54 -55° 227° (SW) 11,049 10.2 -20.4°
Maximum altitude 11:19:44 59° 319° (NW) 550 3.3 -14.4°
